Home > Weather > Einbeck > Past weeks

Flag for Germany Past Weather in Einbeck, Lower Saxony, Germany — Yesterday and Last 2 Weeks

Now
61 °F

Broken clouds.


Feels Like: 61 °F
Forecast: 56 / 70 °F
Wind: 6 mph from Southeast

Location: Kassel / Calden

Current Time: Jun 27, 2016 at 10:20:08 PM

Latest Report: Jun 27, 2016 at 9:50 PM


Visibility: 6 mi

Pressure: 30.07 "Hg

Humidity: 100%

Dew Point: 61 °F

Location of EinbeckLocation

Past Weather in Einbeck — Graph

°F

Einbeck Temperature Yesterday

Maximum temperature yesterday: 70 °F (at 4:50 PM)
Minimum temperature yesterday: 57 °F (at 7:20 AM)
Average temperature yesterday: 64 °F

High & Low Weather Summary for the Past Weeks

 TemperatureHumidityPressure
High90 °F (Jun 23, 3:50 PM)100% (Jun 12, 8:20 PM)30.24 "Hg (Jun 12, 8:20 PM)
Low50 °F (Jun 20, 7:20 AM)36% (Jun 23, 5:20 PM)29.47 "Hg (Jun 14, 7:20 PM)
Average65 °F74%29.92 "Hg
* Reported Jun 12 8:20 PM — Jun 27 8:50 PM, Einbeck, Weather by CustomWeather, © 2016

Note: Actual official high and low records may vary slightly from our data, if they occured in-between our weather recording intervals... More about our weather records

Advertising

Einbeck Weather History for the Previous 24 Hours

Scroll right to see more
 ConditionsComfort  
Time TempWeatherWind HumidityBarometerVisibility
8:50 PM
Mon, Jun 27
61 °FLight rain. Broken clouds.7 mph100%30.07 "Hg6 mi
8:20 PM61 °FDrizzle. Broken clouds.6 mph94%30.07 "Hg6 mi
7:50 PM61 °FLight rain. Cloudy.10 mph83%30.07 "Hg5 mi
7:20 PM63 °FBroken clouds.10 mph77%30.07 "HgN/A
6:50 PM64 °FBroken clouds.13 mph68%30.07 "HgN/A
6:20 PM64 °FBroken clouds.14 mph68%30.07 "HgN/A
5:50 PM66 °FScattered showers. Broken clouds.13 mph64%30.07 "HgN/A
5:20 PM66 °FBroken clouds.12 mph64%30.07 "HgN/A
4:50 PM66 °FBroken clouds.14 mph64%30.07 "HgN/A
4:20 PM66 °FPartly sunny.13 mph60%30.07 "HgN/A
3:50 PM66 °FPartly sunny.10 mph56%30.07 "HgN/A
3:20 PM68 °FScattered clouds.10 mph53%30.07 "HgN/A
2:50 PM68 °FBroken clouds.14 mph53%30.07 "HgN/A
2:20 PM66 °FScattered clouds.12 mph52%30.07 "HgN/A
1:50 PM68 °FScattered clouds.10 mph53%30.07 "HgN/A
1:20 PM66 °FScattered clouds.14 mph52%30.07 "HgN/A
12:50 PM64 °FScattered clouds.14 mph56%30.09 "HgN/A
12:20 PM64 °FScattered clouds.13 mph56%30.09 "HgN/A
11:50 AM66 °FScattered clouds.14 mph56%30.09 "HgN/A
11:20 AM63 °FScattered clouds.14 mph59%30.09 "HgN/A
10:50 AM63 °FScattered clouds.13 mph68%30.09 "HgN/A
10:20 AM61 °FScattered clouds.8 mph72%30.09 "HgN/A
9:50 AM61 °FPassing clouds.7 mph68%30.09 "HgN/A
9:20 AM59 °FPassing clouds.6 mph72%30.09 "HgN/A
8:50 AM57 °FPassing clouds.7 mph77%30.09 "HgN/A
8:20 AM57 °FPassing clouds.7 mph82%30.09 "HgN/A
7:50 AM55 °FSunny.9 mph82%30.09 "Hg10 mi
7:20 AM55 °FPassing clouds.5 mph94%30.09 "HgN/A
Weather by CustomWeather, © 2016

See weather overviewHow to use our weather pages